This is the latest recevied weather packets stored in our database for station/object KSRR. If no packets are shown the sender has not sent any weather packets the latest 1 day(s).
| Time | Temp. | Humidity | Pressure | Rain* | Wind** | Luminosity | Snow |
|---|---|---|---|---|---|---|---|
| 1778040821 | 12.78° C | 32% | 1015.2 hPa | - | 7.6 m/s, 240° | - | - |
| 1778040339 | 12.78° C | 32% | 1015.2 hPa | - | 7.6 m/s, 240° | - | - |
| 1778039617 | 12.78° C | 32% | 1015.2 hPa | - | 7.6 m/s, 240° | - | - |
| 1778039024 | 12.78° C | 32% | 1015.2 hPa | - | 7.6 m/s, 240° | - | - |
| 1778038423 | 13.89° C | 28% | 1015.2 hPa | - | 8.05 m/s, 240° | - | - |
| 1778037822 | 13.89° C | 28% | 1015.2 hPa | - | 8.05 m/s, 240° | - | - |
| 1778037218 | 13.89° C | 28% | 1014.9 hPa | - | 9.39 m/s, 240° | - | - |
| 1778036616 | 13.89° C | 28% | 1014.9 hPa | - | 9.39 m/s, 240° | - | - |
| 1778036017 | 13.89° C | 28% | 1014.6 hPa | - | 9.39 m/s, 240° | - | - |
| 1778035417 | 13.89° C | 28% | 1014.6 hPa | - | 9.39 m/s, 240° | - | - |
| 1778034816 | 13.89° C | 28% | 1014.2 hPa | - | 9.39 m/s, 240° | - | - |
| 1778034219 | 13.89° C | 28% | 1014.2 hPa | - | 9.39 m/s, 240° | - | - |
| 1778033619 | 13.89° C | 28% | 1014.2 hPa | - | 11.62 m/s, 240° | - | - |
| 1778033019 | 13.89° C | 28% | 1014.2 hPa | - | 11.62 m/s, 240° | - | - |
| 1778032419 | - | - | 1009.8 hPa | - | 0 m/s | - | - |
| 1778031818 | 13.89° C | 30% | 1013.5 hPa | - | 7.6 m/s, 250° | - | - |
| 1778031219 | 13.89° C | 30% | 1013.5 hPa | - | 7.6 m/s, 250° | - | - |
| 1778030617 | 13.89° C | 30% | 1013.5 hPa | - | 7.6 m/s, 250° | - | - |
| 1778030020 | 15° C | 28% | 1013.2 hPa | - | 14.31 m/s, 250° | - | - |
| 1778029417 | 15° C | 28% | 1013.2 hPa | - | 14.31 m/s, 250° | - | - |
| 1778028820 | 15° C | 30% | 1013.5 hPa | - | 12.07 m/s, 240° | - | - |
| 1778028218 | 15° C | 30% | 1013.5 hPa | - | 12.07 m/s, 240° | - | - |
| 1778027617 | 15° C | 30% | 1013.5 hPa | - | 12.96 m/s, 240° | - | - |
| 1778027017 | 15° C | 30% | 1013.5 hPa | - | 12.96 m/s, 240° | - | - |
| 1778026423 | - | - | 1009.1 hPa | - | 0 m/s | - | - |
* Rain since midnight (hover to see other rain measurements)
** Current wind speed in m/s (hover to see current wind gust speed)